Hourly Data Report for August 20, 2017

QUALICUM BEACH AIRPORT
BRITISH COLUMBIA

49°20'14.000" N
124°23'38.000" W
58.20 m
1026562
71766
VOQ

Download Data

Hourly Data (August 2017)
Hourly Data Report for August 20, 2017
TIME
LST
Temp Definition
°C
Dew Point Definition
°C
Rel Hum Definition
%
Precip. Amount Definition
mm

Wind Dir Definition
10's deg

Wind Spd Definition
km/h
Visibility Definition
km
Stn Press Definition
kPa
Hmdx Definition


Wind Chill Definition


Weather Definition


00:00 14.8 9.7 71 0.0 26 4   101.39     LegendNANA
01:00 15.4 10.2 71 0.0 28 4   101.40     LegendNANA
02:00 14.3 10.1 76 0.0 0 1   101.37     LegendNANA
03:00 13.6 9.8 78 0.0 23 6   101.36     LegendNANA
04:00 13.8 10.1 78 0.0 22 1   101.33     LegendNANA
05:00 13.2 9.9 81 0.0 24 2   101.36     LegendNANA
06:00 12.6 9.8 83 0.0 17 1   101.36     LegendNANA
07:00 14.7 10.9 78 0.0 0 1   101.38     LegendNANA
08:00 17.8 10.5 62 0.0 26 2   101.38     LegendNANA
09:00 19.7 11.4 59 0.0 7 6   101.37     LegendNANA
10:00 19.8 11.8 60 0.0 2 6   101.39     LegendNANA
11:00 20.8 10.1 51 0.0 6 8   101.37     LegendNANA
12:00 20.8 12.6 59 0.0 9 7   101.34     LegendNANA
13:00 21.6 11.6 53 0.0 4 7   101.35     LegendNANA
14:00 22.6 11.3 49 0.0 6 5   101.28 25   LegendNANA
15:00 22.7 10.6 46 0.0 5 7   101.23     LegendNANA
16:00 22.6 11.9 51 0.0 2 8   101.20 25   LegendNANA
17:00 23.1 11.8 49 0.0 35 7   101.21 25   LegendNANA
18:00 22.7 10.6 46 0.0 32 9   101.21     LegendNANA
19:00 21.4 11.4 53 0.0 28 3   101.20     LegendNANA
20:00 18.3 11.8 66 0.0 26 1   101.23     LegendNANA
21:00 17.3 11.9 70 0.0 24 2   101.24     LegendNANA
22:00 16.5 11.7 74 0.0 29 2   101.27     LegendNANA
23:00 15.6 11.7 78 0.0 26 1   101.28     LegendNANA

Notes on Data Quality.

Legend

  • E = Estimated
  • M = Missing
  • NA = Not Available*
  • [empty] = Indicates an unobserved value
Date modified: